Zurück zum Katalog

STARLINK-5947

AktivKommunikationVLEO
NORAD 55989·PAYLOAD·🇺🇸 United States

Gestartet Mar 24, 2023 von Cape Canaveral Space Force Station

Loading…

Nächste Überflüge (nächste 24 Stunden)

TLE

AktuellSource: CelesTrak SupGP

Epoche: Sep 15, 2026, 02:36 UTC

1 55989C 23042D   26258.10881944 -.00023415  00000+0 -84794-3 0  2584
2 55989  43.0040  69.8292 0002015 275.5486 282.9862 15.27595449    19

Verfolge STARLINK-5947 in Echtzeit mit AllMySat

Download on the App Store